DEIMOS 2

Satellite information

Favourite Embed

Satellite Type and Status

PAYLOADIN ORBIT

Key statistics

Satellite DEIMOS 2 at a glance.

Uptime

4147

Days in orbit

Revolutions

≈ 14.9

Per day

Orbit

SSO

Sun Synchronous Orbit

Inclination

97.6

Latest

Satellite identification and parameters

Extended collection of information and parameters for DEIMOS 2.

Object identification

Identified? True

Debris? False

Object name: DEIMOS 2

International designator: 2014-033D

Object number (NORAD): 40013

Object ID (CCSDS): 40013

Country: SPAIN (SPN)

Current information (Y/N): Y

RCS size: LARGE

Orbital parameters

Period: 96.473 minutes

Inclination: 97.61 deg

SMA: 6967.81 km

Apoapsis: 591.131 km

Periapsis: 588.219 km

RAAN: 176.2984 deg

Eccentricy: 0.00020899

Argument of periapsis: 64.6308 deg

Mean anomaly: 295.5128 deg

Mean motion: 14.92651156 rev/day

Mean motion (dot): 0.00002541 rev/day2

B* drag term: 0.00025184062 1/REarth

Two-line elements (TLE)

Creation date: Oct. 26, 2025, 2:54 a.m.

Reference frame: TEME

Reference center: EARTH

Epoch: Oct. 25, 2025, 10:08 p.m. UTC

TLE line 0: 0 DEIMOS 2

TLE line 1: 1 40013U 14033D 25298.92225395 .00002541 00000-0 25184-3 0 9997

TLE line 2: 2 40013 97.6100 176.2984 0002090 64.6308 295.5128 14.92651156602761

Live tracking on map

Real-time ground track for satellite DEIMOS 2.

In-orbit conjunctions

There are no conjunctions computed for DEIMOS 2, at the moment. Check back to stay up to date, as we update our databases every day.

Go to all conjunctions

Associated space launch

DEIMOS 2 was lifted into orbit during the mission ‘Dnepr 1 | Multipayload, 37 satellites.’, on board a Dnepr space rocket.

The launch took place on June 19, 2014, 7:11 p.m. from 370/13.

For more information about the launch, click the button.

Launch to space Dnepr 1 | Multipayload, 37 satellites.
Dnepr 1 | Multipayload, 37 satellites.

Agency: N/A

Status: Launch Successful

Launch date: June 19, 2014, 7:11 p.m. UTC

Rocket: Dnepr

Launch pad: 370/13

Location: Dombarovskiy, Russian Federation

...

Latest news about this satellite

There are no fresh news available about this satellite. Check back as we update our databases every day.


Newsletter sign-up

Weekly statistics, charts and insights to help you stay on top of the space industry.